[Date Prev][Date Next][Thread Prev][Thread Next] - [Date Index][Thread Index][Author Index]

2 Line ISS Keps 1-26



ISS
1 25544U 98067A   03026.20098755  .00009534  00000-0  12307-3 0  6227
2 25544  51.6368  13.4589 0005626  76.5838  31.9674 15.59715225238855


----
Via the sarex mailing list at AMSAT.ORG courtesy of AMSAT-NA.
To unsubscribe, send "unsubscribe sarex" to Majordomo@amsat.org



AMSAT Top AMSAT Home